GW4961 Weather Reports


time (UTC)temp
C
wind
direction
speed
KPH
gust
KPH
rain 1hr
cm
rain 24hr
cm
rain mn
cm
humidity
%
barometer
mb
20260509080004 31 147 1.6 6.4 0.00 1.73 1.73 80 1010.0
20260509075725 31 135 1.6 6.4 0.00 1.73 1.73 80 1010.0
20260509075404 31 130 1.6 6.4 0.00 1.73 1.73 80 1010.0
20260509075125 31 132 1.6 6.4 0.00 1.73 1.73 80 1010.0
20260509074804 31 167 1.6 6.4 0.00 1.73 1.73 80 1010.0
20260509074504 31 177 1.6 6.4 0.00 1.73 1.73 80 1010.0
20260509074204 31 149 1.6 6.4 0.00 1.73 1.73 80 1010.0
20260509073904 30 139 3.2 6.4 0.00 1.73 1.73 80 1010.0
20260509073604 30 118 3.2 6.4 0.00 1.73 1.73 80 1010.0
20260509073304 30 125 1.6 6.4 0.00 1.73 1.73 80 1010.0
20260509073005 30 160 3.2 6.4 0.00 1.73 1.73 81 1010.0
20260509072704 30 167 1.6 6.4 0.00 1.73 1.73 81 1010.0
20260509072404 30 160 1.6 6.4 0.00 1.73 1.73 81 1010.0
20260509072104 30 148 1.6 4.8 0.00 1.73 1.73 81 1010.0
20260509071804 30 148 1.6 4.8 0.00 1.73 1.73 81 1010.0
20260509071504 30 143 1.6 4.8 0.00 1.73 1.73 81 1010.0
20260509071225 30 140 1.6 4.8 0.00 1.73 1.73 81 1010.0
20260509070904 30 138 1.6 4.8 0.03 1.73 1.73 82 1010.0
20260509070604 30 239 1.6 4.8 0.05 1.73 1.73 81 1010.0
20260509070304 30 356 1.6 4.8 0.15 1.73 1.73 82 1010.0
20260509070025 30 59 1.6 4.8 0.20 1.73 1.73 82 1010.0
20260509065725 30 103 1.6 4.8 0.33 1.73 1.73 82 1010.0
20260509065404 30 135 1.6 4.8 0.43 1.73 1.73 82 1010.0
20260509065104 30 130 1.6 4.8 0.48 1.73 1.73 82 1010.0
20260509064825 30 122 1.6 4.8 0.48 1.73 1.73 82 1010.0
20260509064504 30 112 1.6 4.8 0.56 1.73 1.73 83 1010.0
20260509064204 30 97 0.0 4.8 0.69 1.73 1.73 83 1010.0
20260509063904 30 90 0.0 4.8 0.74 1.73 1.73 83 1010.0
20260509063604 30 112 0.0 4.8 0.84 1.73 1.73 83 1010.0
20260509063304 30 113 0.0 4.8 1.17 1.73 1.73 83 1010.0
20260509063004 30 131 1.6 6.4 1.55 1.73 1.73 83 1010.0
20260509062725 30 148 1.6 6.4 1.57 1.73 1.73 83 1010.0
20260509062404 30 125 1.6 6.4 1.65 1.73 1.73 83 1010.0
20260509062104 30 107 1.6 6.4 1.68 1.73 1.73 83 1010.0
20260509061804 30 87 1.6 6.4 1.68 1.73 1.73 83 1010.0
20260509061504 30 92 3.2 6.4 1.68 1.73 1.73 83 1010.0
20260509061204 30 107 3.2 6.4 1.65 1.73 1.73 83 1010.0
20260509060904 30 106 1.6 6.4 1.65 1.70 1.70 83 1010.0
20260509060604 30 110 1.6 6.4 1.63 1.68 1.68 83 1010.0
20260509060304 30 107 1.6 4.8 1.55 1.60 1.60 83 1010.0
20260509060004 30 106 1.6 4.8 1.47 1.52 1.52 83 1010.0
20260509055725 30 119 1.6 4.8 1.37 1.42 1.42 83 1010.0
20260509055404 30 115 3.2 4.8 1.27 1.30 1.30 82 1010.0
20260509055104 30 97 3.2 4.8 1.22 1.27 1.27 83 1010.0
20260509054825 30 79 1.6 4.8 1.22 1.24 1.24 83 1010.0
20260509054504 29 69 1.6 4.8 1.14 1.17 1.17 83 1010.0
20260509054225 30 61 1.6 4.8 1.02 1.04 1.04 83 1010.0
20260509053904 30 63 1.6 4.8 0.99 0.99 0.99 83 1010.0
20260509053604 30 85 1.6 4.8 0.86 0.89 0.89 83 1010.0
20260509053304 30 95 1.6 4.8 0.56 0.56 0.56 83 1010.0
20260509053004 30 118 1.6 4.8 0.18 0.18 0.18 84 1010.0
20260509052704 30 110 0.0 4.8 0.15 0.15 0.15 84 1010.0
20260509052404 30 139 0.0 4.8 0.08 0.08 0.08 84 1010.0
20260509052104 30 159 1.6 4.8 0.05 0.05 0.05 84 1010.0
20260509051825 29 149 1.6 4.8 0.05 0.05 0.05 84 1010.0
20260509051505 29 157 1.6 4.8 0.05 0.05 0.05 84 1010.0
20260509051204 30 186 1.6 4.8 0.05 0.05 0.05 84 1010.0
20260509050905 30 181 0.0 3.2 0.05 0.05 0.05 83 1010.0
20260509050604 30 193 0.0 3.2 0.05 0.05 0.05 83 1010.0
20260509050304 30 188 0.0 3.2 0.05 0.05 0.05 82 1010.0
20260509050004 30 155 0.0 3.2 0.05 0.05 0.05 82 1010.0
20260509045704 30 160 0.0 3.2 0.05 0.05 0.05 82 1010.0
20260509045425 30 145 0.0 3.2 0.05 0.05 0.05 81 1010.0
20260509045104 30 146 0.0 3.2 0.05 0.05 0.05 81 1010.0
20260509044804 30 129 0.0 3.2 0.05 0.05 0.05 81 1010.0
20260509044504 30 115 0.0 4.8 0.03 0.03 0.03 81 1010.0
20260509044204 30 100 0.0 4.8 0.03 0.03 0.03 81 1010.0
20260509043904 30 108 1.6 4.8 0.00 0.00 0.00 81 1010.0
20260509043604 30 102 0.0 4.8 0.00 0.00 0.00 81 1010.0
20260509043304 30 104 1.6 3.2 0.00 0.00 0.00 82 1010.0
20260509043004 30 107 1.6 3.2 0.00 0.00 0.00 82 1010.0
20260509042704 30 94 1.6 3.2 0.00 0.00 0.00 82 1010.0
20260509042404 30 83 0.0 3.2 0.00 0.00 0.00 82 1010.0
20260509042104 30 80 0.0 3.2 0.00 0.00 0.00 82 1010.0
20260509041804 30 89 0.0 3.2 0.00 0.00 0.00 82 1010.0
20260509041525 30 95 0.0 3.2 0.00 0.00 0.00 81 1010.0
20260509041204 30 83 0.0 3.2 0.00 0.00 0.00 81 1010.0
20260509040904 30 128 0.0 3.2 0.00 0.00 0.00 81 1010.0
20260509040625 30 140 0.0 4.8 0.00 0.00 0.00 81 1010.0
20260509040304 30 164 0.0 4.8 0.00 0.00 0.00 81 1010.0
20260509040004 30 159 1.6 4.8 0.00 0.00 0.00 81 1010.0
20260509035725 30 167 1.6 4.8 0.00 0.00 0.00 81 1010.0
20260509035404 30 172 1.6 4.8 0.00 0.00 0.00 81 1010.0
20260509035104 30 173 1.6 4.8 0.00 0.00 0.00 80 1010.0
20260509034804 30 175 1.6 4.8 0.00 0.00 0.00 80 1010.0
20260509034525 30 167 0.0 4.8 0.00 0.00 0.00 80 1010.0
20260509034225 30 156 0.0 3.2 0.00 0.00 0.00 80 1010.0
20260509033925 30 163 0.0 4.8 0.00 0.00 0.00 80 1010.0
20260509033604 30 159 1.6 4.8 0.00 0.00 0.00 80 1010.0
20260509033304 30 172 1.6 4.8 0.00 0.00 0.00 80 1010.0
20260509033004 30 192 1.6 4.8 0.00 0.00 0.00 80 1010.0
20260509032725 30 205 1.6 4.8 0.00 0.00 0.00 80 1010.0
20260509032425 30 214 1.6 4.8 0.00 0.00 0.00 80 1010.0
20260509032104 30 194 1.6 3.2 0.00 0.00 0.00 80 1010.0
20260509031804 30 192 0.0 3.2 0.00 0.00 0.00 80 1010.0
20260509031525 30 210 0.0 3.2 0.00 0.00 0.00 80 1010.0
20260509031204 30 253 0.0 3.2 0.00 0.00 0.00 80 1010.0
20260509030904 30 199 0.0 3.2 0.00 0.00 0.00 80 1010.0
20260509030604 29 160 0.0 3.2 0.00 0.00 0.00 80 1010.0
20260509030304 29 107 0.0 3.2 0.00 0.00 0.00 79 1010.0
20260509030004 29 4 0.0 3.2 0.00 0.00 0.00 79 1010.0
20260509025704 29 346 0.0 3.2 0.00 0.00 0.00 80 1010.0
20260509025404 29 352 0.0 3.2 0.00 0.00 0.00 80 1010.0
20260509025104 29 360 0.0 3.2 0.00 0.00 0.00 80 1010.0
20260509024804 29 9 0.0 3.2 0.00 0.00 0.00 80 1010.0
20260509024525 29 84 0.0 3.2 0.00 0.00 0.00 80 1010.0
20260509024204 29 146 1.6 4.8 0.00 0.00 0.00 80 1010.0
20260509023904 29 149 1.6 4.8 0.00 0.00 0.00 80 1010.0
20260509023604 29 150 1.6 4.8 0.00 0.00 0.00 79 1010.0
20260509023304 29 145 1.6 4.8 0.00 0.00 0.00 79 1010.0
20260509023004 29 153 1.6 4.8 0.00 0.00 0.00 79 1010.0
20260509022704 29 142 1.6 4.8 0.00 0.00 0.00 79 1010.0
20260509022404 29 153 1.6 4.8 0.00 0.00 0.00 79 1010.0
20260509022125 29 165 1.6 4.8 0.00 0.00 0.00 79 1010.0
20260509021804 29 172 1.6 4.8 0.00 0.00 0.00 79 1010.0
20260509021504 29 160 1.6 4.8 0.00 0.00 0.00 79 1010.0
20260509021204 29 157 0.0 3.2 0.00 0.00 0.00 79 1010.0
20260509020904 29 149 0.0 3.2 0.00 0.00 0.00 79 1010.0
20260509020604 29 163 1.6 3.2 0.00 0.00 0.00 79 1010.0
20260509020304 29 162 1.6 3.2 0.00 0.00 0.00 79 1010.0
20260509020004 29 149 1.6 3.2 0.00 0.00 0.00 79 1010.0
20260509015704 29 141 0.0 3.2 0.00 0.00 0.00 79 1010.0
20260509015404 29 120 0.0 3.2 0.00 0.00 0.00 79 1010.0
20260509015104 29 113 0.0 3.2 0.00 0.00 0.00 79 1010.0
20260509014804 29 98 0.0 3.2 0.00 0.00 0.00 80 1010.0
20260509014504 29 99 0.0 3.2 0.00 0.00 0.00 80 1010.0
20260509014204 29 98 0.0 3.2 0.00 0.00 0.00 79 1010.0
20260509013904 29 127 0.0 3.2 0.00 0.00 0.00 80 1010.0
20260509013604 28 133 0.0 3.2 0.00 0.00 0.00 80 1010.0
20260509013325 28 126 0.0 4.8 0.00 0.00 0.00 80 1010.0
20260509013004 28 135 1.6 4.8 0.00 0.00 0.00 80 1010.0
20260509012704 28 136 1.6 4.8 0.00 0.00 0.00 80 1010.0
20260509012425 28 145 1.6 4.8 0.00 0.00 0.00 80 1010.0
20260509012104 28 140 1.6 3.2 0.00 0.00 0.00 80 1010.0
20260509011804 28 123 1.6 4.8 0.00 0.00 0.00 80 1010.0
20260509011504 28 120 1.6 4.8 0.00 0.00 0.00 80 1010.0
20260509011204 29 126 1.6 4.8 0.00 0.00 0.00 79 1010.0
20260509010904 28 139 1.6 4.8 0.00 0.00 0.00 79 1010.0
20260509010604 28 155 1.6 3.2 0.00 0.00 0.00 79 1010.0
20260509010304 29 139 1.6 3.2 0.00 0.00 0.00 79 1010.0
20260509010004 29 135 0.0 3.2 0.00 0.00 0.00 79 1010.0
20260509005704 29 126 0.0 3.2 0.00 0.00 0.00 79 1010.0
20260509005404 29 114 0.0 3.2 0.00 0.00 0.00 78 1010.0
20260509005104 29 87 0.0 3.2 0.00 0.00 0.00 79 1010.0
20260509004804 29 74 0.0 4.8 0.00 0.00 0.00 78 1010.0
20260509004504 29 76 1.6 4.8 0.00 0.00 0.00 78 1010.0
20260509004225 29 88 0.0 4.8 0.00 0.00 0.00 78 1010.0
20260509003925 29 99 1.6 4.8 0.00 0.00 0.00 78 1010.0
20260509003604 29 93 0.0 3.2 0.00 0.00 0.00 78 1010.0
20260509003325 29 102 0.0 3.2 0.00 0.00 0.00 78 1010.0
20260509003004 29 108 0.0 3.2 0.00 0.00 0.00 78 1010.0
20260509002704 29 129 0.0 3.2 0.00 0.00 0.00 78 1010.0
20260509002404 29 127 0.0 3.2 0.00 0.00 0.00 78 1010.0
20260509002104 29 129 0.0 3.2 0.00 0.00 0.00 78 1010.0
20260509001804 29 115 0.0 3.2 0.00 0.00 0.00 78 1010.0
20260509001525 29 113 0.0 3.2 0.00 0.00 0.00 78 1010.0
20260509001204 29 108 0.0 3.2 0.00 0.00 0.00 78 1010.0
20260509000904 29 97 0.0 3.2 0.00 0.00 0.00 78 1010.0
20260509000625 29 90 0.0 3.2 0.00 0.00 0.00 78 1010.0
20260509000304 29 99 1.6 3.2 0.00 0.00 0.00 78 1010.0
20260509000004 29 99 1.6 3.2 0.00 0.00 0.00 78 1010.0
20260508235704 29 96 0.0 3.2 0.00 0.00 0.00 78 1010.0
20260508235404 30 100 0.0 3.2 0.00 0.00 0.00 78 1010.0
20260508235104 30 114 0.0 3.2 0.00 0.00 0.00 77 1010.0
20260508234825 30 126 0.0 3.2 0.00 0.00 0.00 77 1010.0
20260508234504 29 138 0.0 3.2 0.00 0.00 0.00 77 1010.0
20260508234225 29 130 0.0 3.2 0.00 0.00 0.00 77 1010.0
20260508233925 29 136 0.0 3.2 0.00 0.00 0.00 77 1010.0
20260508233604 29 132 0.0 3.2 0.00 0.00 0.00 77 1010.0
20260508233325 29 125 0.0 3.2 0.00 0.00 0.00 77 1010.0
20260508233004 30 116 1.6 3.2 0.00 0.00 0.00 77 1010.0
20260508232704 29 107 1.6 3.2 0.00 0.00 0.00 77 1010.0
20260508232404 29 91 1.6 3.2 0.00 0.00 0.00 77 1010.0
20260508232104 30 80 1.6 3.2 0.00 0.00 0.00 77 1010.0
20260508231804 30 71 1.6 3.2 0.00 0.00 0.00 77 1010.0
20260508231504 30 95 1.6 3.2 0.00 0.00 0.00 77 1010.0
20260508231204 30 108 1.6 3.2 0.00 0.00 0.00 77 1010.0
20260508230925 30 116 1.6 3.2 0.00 0.00 0.00 77 1010.0
20260508230625 30 113 1.6 3.2 0.00 0.00 0.00 77 1010.0
20260508230304 30 115 1.6 3.2 0.00 0.00 0.00 77 1010.0
20260508230004 30 127 1.6 3.2 0.00 0.00 0.00 77 1010.0
20260508225725 30 120 1.6 3.2 0.00 0.00 0.00 77 1010.0
20260508225404 30 118 0.0 3.2 0.00 0.00 0.00 77 1010.0
20260508225104 30 128 1.6 4.8 0.00 0.00 0.00 77 1010.0
20260508224804 30 135 1.6 4.8 0.00 0.00 0.00 77 1010.0
20260508224504 30 141 1.6 4.8 0.00 0.00 0.00 77 1010.0
20260508224204 30 125 1.6 4.8 0.00 0.00 0.00 77 1010.0
20260508223904 30 109 1.6 3.2 0.00 0.00 0.00 77 1010.0
20260508223604 30 87 1.6 3.2 0.00 0.00 0.00 77 1010.0
20260508223304 29 62 1.6 3.2 0.00 0.00 0.00 77 1010.0
20260508223004 30 47 1.6 3.2 0.00 0.00 0.00 77 1010.0
20260508222725 30 57 1.6 3.2 0.00 0.00 0.00 77 1010.0
20260508222404 30 131 1.6 3.2 0.00 0.00 0.00 77 1010.0
20260508222104 30 156 1.6 4.8 0.00 0.00 0.00 77 1010.0
20260508221804 30 152 1.6 4.8 0.00 0.00 0.00 77 1010.0
20260508221504 30 146 1.6 4.8 0.00 0.00 0.00 77 1010.0
20260508221204 30 138 1.6 4.8 0.00 0.00 0.00 77 1010.0
20260508220904 30 132 1.6 4.8 0.00 0.00 0.00 77 1010.0
20260508220604 30 136 1.6 4.8 0.00 0.00 0.00 77 1010.0
20260508220304 30 150 1.6 4.8 0.00 0.00 0.00 77 1010.0
20260508220004 30 149 1.6 4.8 0.00 0.00 0.00 77 1010.0
20260508215725 30 152 1.6 3.2 0.00 0.00 0.00 77 1010.0
20260508215404 30 145 1.6 3.2 0.00 0.00 0.00 77 1010.0
20260508215104 30 138 1.6 3.2 0.00 0.00 0.00 77 1010.0
20260508214804 30 127 1.6 3.2 0.00 0.00 0.00 77 1010.0
20260508214504 30 116 1.6 3.2 0.00 0.00 0.00 77 1010.0
20260508214204 30 117 1.6 3.2 0.00 0.00 0.00 77 1010.0
20260508213904 30 155 0.0 3.2 0.00 0.00 0.00 77 1010.0
20260508213625 30 137 0.0 3.2 0.00 0.00 0.00 77 1010.0
20260508213304 30 128 1.6 3.2 0.00 0.00 0.00 77 1010.0
20260508213004 30 117 1.6 3.2 0.00 0.00 0.00 77 1010.0
20260508212704 30 101 1.6 3.2 0.00 0.00 0.00 77 1010.0
20260508212404 30 89 1.6 3.2 0.00 0.00 0.00 77 1010.0
20260508212104 30 98 1.6 3.2 0.00 0.00 0.00 77 1010.0
20260508211804 30 103 1.6 3.2 0.00 0.00 0.00 77 1010.0
20260508211504 30 125 1.6 4.8 0.00 0.00 0.00 77 1010.0
20260508211204 30 128 1.6 4.8 0.00 0.00 0.00 77 1010.0
20260508210904 30 128 1.6 4.8 0.00 0.00 0.00 77 1010.0
20260508210604 30 118 1.6 4.8 0.00 0.00 0.00 77 1010.0
20260508210304 30 83 1.6 4.8 0.00 0.00 0.00 77 1010.0
20260508210004 30 83 0.0 4.8 0.00 0.00 0.00 77 1010.0
20260508205704 30 107 1.6 4.8 0.00 0.00 0.00 77 1010.0
20260508205404 30 119 1.6 4.8 0.00 0.00 0.00 77 1010.0
20260508205104 30 117 1.6 4.8 0.00 0.00 0.00 77 1010.0
20260508204825 30 125 1.6 4.8 0.00 0.00 0.00 77 1010.0
20260508204504 30 131 1.6 4.8 0.00 0.00 0.00 77 1010.0
20260508204204 30 129 1.6 4.8 0.00 0.00 0.00 77 1010.0
20260508203925 30 138 1.6 4.8 0.00 0.00 0.00 76 1010.0
20260508203604 30 99 1.6 6.4 0.00 0.00 0.00 77 1010.0
20260508203304 30 71 1.6 6.4 0.00 0.00 0.00 77 1010.0
20260508203004 30 50 1.6 6.4 0.00 0.00 0.00 77 1010.0
20260508202704 30 43 1.6 6.4 0.00 0.00 0.00 77 1010.0
20260508202425 30 52 1.6 4.8 0.00 0.00 0.00 77 1010.0
20260508202104 30 83 1.6 4.8 0.00 0.00 0.00 76 1010.0
20260508201825 30 99 1.6 4.8 0.00 0.00 0.00 77 1010.0
20260508201504 30 108 1.6 4.8 0.00 0.00 0.00 76 1010.0
20260508201204 30 112 1.6 6.4 0.00 0.00 0.00 77 1010.0
20260508200904 30 111 1.6 6.4 0.00 0.00 0.00 76 1010.0
20260508200604 30 110 1.6 6.4 0.00 0.00 0.00 77 1010.0
20260508200325 30 112 1.6 6.4 0.00 0.00 0.00 76 1010.0
20260508200004 30 118 1.6 6.4 0.00 0.00 0.00 76 1010.0
20260508195725 30 94 1.6 8.0 0.00 0.00 0.00 76 1010.0
20260508195404 30 60 3.2 8.0 0.00 0.00 0.00 76 1010.0
20260508195104 30 40 3.2 8.0 0.00 0.00 0.00 76 1010.0
20260508194804 30 36 3.2 8.0 0.00 0.00 0.00 76 1010.0
20260508194504 30 102 1.6 4.8 0.00 0.00 0.00 76 1010.0
20260508194204 30 116 1.6 6.4 0.00 0.00 0.00 76 1010.0
20260508193904 30 118 0.0 6.4 0.00 0.00 0.00 76 1010.0
20260508193604 30 103 0.0 6.4 0.00 0.00 0.00 76 1010.0
20260508193325 30 76 0.0 6.4 0.00 0.00 0.00 76 1010.0
20260508193004 30 87 1.6 4.8 0.00 0.00 0.00 76 1010.0
20260508192704 30 112 1.6 4.8 0.00 0.00 0.00 76 1010.0
20260508192404 30 119 1.6 4.8 0.00 0.00 0.00 76 1010.0
20260508192125 30 125 1.6 8.0 0.00 0.00 0.00 76 1010.0
20260508191804 30 116 1.6 8.0 0.00 0.00 0.00 76 1010.0
20260508191525 30 79 3.2 9.7 0.00 0.00 0.00 76 1010.0
20260508191204 30 66 3.2 9.7 0.00 0.00 0.00 76 1010.0
20260508190904 30 62 3.2 9.7 0.00 0.00 0.00 76 1010.0
20260508190604 30 77 1.6 9.7 0.00 0.00 0.00 76 1010.0
20260508190304 30 118 1.6 4.8 0.00 0.00 0.00 76 1010.0
20260508190004 30 103 0.0 4.8 0.00 0.00 0.00 76 1010.0
20260508185725 30 100 0.0 1.6 0.00 0.00 0.00 76 1010.0
20260508185404 30 91 0.0 1.6 0.00 0.00 0.00 76 1010.0
20260508185104 30 34 0.0 3.2 0.00 0.00 0.00 76 1010.0
20260508184804 30 122 0.0 3.2 0.00 0.00 0.00 76 1010.0
20260508184504 30 138 0.0 3.2 0.00 0.00 0.00 76 1010.0
20260508184204 30 143 1.6 3.2 0.00 0.00 0.00 76 1010.0
20260508183904 30 146 1.6 4.8 0.00 0.00 0.00 76 1010.0
20260508183604 30 148 1.6 4.8 0.00 0.00 0.00 76 1010.0
20260508183304 30 152 1.6 4.8 0.00 0.00 0.00 76 1010.0
20260508183004 30 157 1.6 4.8 0.00 0.00 0.00 76 1010.0
20260508182704 30 161 1.6 4.8 0.00 0.00 0.00 76 1010.0
20260508182404 30 162 1.6 4.8 0.00 0.00 0.00 76 1010.0
20260508182104 30 155 1.6 4.8 0.00 0.00 0.00 76 1010.0
20260508181804 30 158 1.6 3.2 0.00 0.00 0.00 76 1010.0
20260508181504 30 157 0.0 3.2 0.00 0.00 0.00 76 1010.0
20260508181204 30 185 0.0 1.6 0.00 0.00 0.00 76 1010.0
20260508180925 30 121 0.0 1.6 0.00 0.00 0.00 76 1010.0
20260508180626 30 116 0.0 1.6 0.00 0.00 0.00 76 1010.0
20260508180304 30 125 0.0 1.6 0.00 0.00 0.00 76 1010.0
20260508180025 30 127 0.0 1.6 0.00 0.00 0.00 76 1010.0
20260508175704 30 130 0.0 3.2 0.00 0.00 0.00 76 1010.0
20260508175404 30 123 0.0 3.2 0.00 0.00 0.00 76 1010.0
20260508175104 30 125 0.0 3.2 0.00 0.00 0.00 76 1010.0
20260508174804 30 121 0.0 3.2 0.00 0.00 0.00 76 1010.0
20260508174504 30 124 0.0 3.2 0.00 0.00 0.00 76 1010.0
20260508174204 30 123 0.0 3.2 0.00 0.00 0.00 76 1010.0
20260508173904 30 134 1.6 3.2 0.00 0.00 0.00 76 1010.0
20260508173604 30 155 1.6 3.2 0.00 0.00 0.00 76 1010.0
20260508173304 30 167 1.6 3.2 0.00 0.00 0.00 76 1010.0
20260508173004 30 171 1.6 3.2 0.00 0.00 0.00 75 1010.0
20260508172704 30 157 0.0 3.2 0.00 0.00 0.00 76 1010.0
20260508172404 30 155 1.6 3.2 0.00 0.00 0.00 75 1010.0
20260508172104 30 154 1.6 3.2 0.00 0.00 0.00 75 1010.0
20260508171804 30 157 1.6 3.2 0.00 0.00 0.00 75 1010.0
20260508171504 30 155 1.6 3.2 0.00 0.00 0.00 75 1010.0
20260508171204 30 163 0.0 3.2 0.00 0.00 0.00 75 1010.0
20260508170925 30 160 0.0 3.2 0.00 0.00 0.00 75 1010.0
20260508170604 30 143 0.0 1.6 0.00 0.00 0.00 76 1010.0
20260508170304 30 132 0.0 3.2 0.00 0.00 0.00 76 1010.0
20260508170004 30 136 0.0 3.2 0.00 0.00 0.00 76 1010.0
20260508165404 30 133 1.6 3.2 0.00 0.00 0.00 75 1010.0
20260508165104 30 134 1.6 3.2 0.00 0.03 0.00 75 1010.0
20260508164804 30 142 1.6 3.2 0.00 0.03 0.00 75 1010.0
20260508164504 30 149 1.6 3.2 0.00 0.03 0.00 75 1010.0
20260508164204 30 165 1.6 3.2 0.00 0.03 0.00 75 1010.0
20260508163904 30 163 1.6 3.2 0.00 0.03 0.00 75 1010.0
20260508163604 30 167 1.6 3.2 0.00 0.03 0.00 75 1010.0
20260508163325 30 174 1.6 3.2 0.00 0.03 0.00 75 1010.0
20260508163004 30 165 1.6 3.2 0.00 0.03 0.00 75 1010.0
20260508162704 30 157 1.6 3.2 0.00 0.03 0.00 75 1010.0
20260508162404 30 151 1.6 3.2 0.00 0.03 0.00 75 1010.0
20260508162104 30 149 1.6 3.2 0.00 0.05 0.00 75 1010.0
20260508161804 30 154 1.6 3.2 0.00 0.05 0.00 75 1010.0
20260508161504 30 152 1.6 3.2 0.00 0.05 0.00 75 1010.0
20260508161204 30 139 0.0 3.2 0.00 0.05 0.00 75 1010.0
20260508160904 30 132 0.0 3.2 0.00 0.05 0.00 75 1010.0
20260508160625 30 130 0.0 3.2 0.00 0.05 0.00 75 1010.0
20260508160304 30 131 0.0 3.2 0.00 0.05 0.00 75 1010.0
20260508160025 30 126 0.0 3.2 0.00 0.05 0.00 75 1010.0
20260508155725 30 117 0.0 1.6 0.00 0.05 0.00 75 1010.0
20260508155425 30 121 0.0 1.6 0.00 0.08 0.00 75 1010.0
20260508155105 30 125 0.0 3.2 0.00 0.08 0.00 75 1010.0
20260508154804 30 133 0.0 3.2 0.00 0.10 0.00 75 1010.0
20260508154504 30 126 0.0 3.2 0.00 0.10 0.00 75 1010.0
20260508154204 30 132 0.0 3.2 0.00 0.13 0.00 75 1010.0
20260508153904 30 138 1.6 3.2 0.00 0.13 0.00 75 1010.0
20260508153604 30 144 0.0 3.2 0.00 0.15 0.00 75 1010.0
20260508153304 30 154 0.0 3.2 0.00 0.15 0.00 75 1010.0
20260508153004 30 148 0.0 3.2 0.00 0.18 0.00 75 1010.0
20260508152704 30 148 0.0 3.2 0.00 0.18 0.00 75 1010.0
20260508152404 30 142 0.0 3.2 0.00 0.18 0.00 75 1010.0
20260508152104 30 134 0.0 3.2 0.00 0.20 0.00 75 1010.0
20260508151825 30 138 0.0 3.2 0.00 0.20 0.00 75 1010.0
20260508151504 30 133 1.6 3.2 0.00 0.20 0.00 75 1010.0
20260508151225 30 130 1.6 3.2 0.00 0.20 0.00 75 1010.0
20260508150904 30 133 1.6 3.2 0.00 0.23 0.00 75 1010.0
20260508150604 30 135 0.0 3.2 0.00 0.23 0.00 75 1010.0
20260508150325 30 141 0.0 3.2 0.00 0.23 0.00 75 1010.0
20260508150005 30 126 0.0 3.2 0.00 0.23 0.00 75 1010.0
20260508145705 30 120 0.0 3.2 0.00 0.23 0.00 75 1010.0
20260508145404 30 110 0.0 3.2 0.00 0.23 0.00 75 1010.0
20260508145104 30 104 1.6 3.2 0.00 0.23 0.00 75 1010.0
20260508144804 30 107 0.0 3.2 0.00 0.23 0.00 75 1010.0
20260508144505 30 119 0.0 3.2 0.00 0.25 0.00 74 1010.0
20260508144204 30 136 0.0 3.2 0.00 0.33 0.00 75 1010.0
20260508143925 30 133 0.0 3.2 0.00 0.46 0.00 75 1010.0
20260508143625 30 126 0.0 3.2 0.00 0.64 0.00 75 1010.0
20260508143305 30 114 0.0 3.2 0.00 0.84 0.00 74 1010.0
20260508143004 30 106 0.0 3.2 0.00 0.99 0.00 74 1010.0
20260508142704 30 107 1.6 3.2 0.00 1.19 0.00 74 1010.0
20260508142404 30 114 1.6 3.2 0.00 1.35 0.00 74 1010.0
20260508142104 30 118 1.6 3.2 0.00 1.55 0.00 74 1010.0
20260508141804 30 123 1.6 3.2 0.00 1.73 0.00 74 1010.0
20260508141504 30 129 1.6 3.2 0.00 1.83 0.00 74 1010.0
20260508141204 30 134 0.0 3.2 0.00 1.88 0.00 74 1010.0
20260508140904 30 134 0.0 3.2 0.00 1.91 0.00 74 1010.0
20260508140604 30 140 0.0 4.8 0.00 1.93 0.00 74 1010.0
20260508140304 30 148 0.0 4.8 0.00 1.96 0.00 74 1010.0
20260508140005 30 150 1.6 4.8 0.00 2.01 0.00 74 1010.0
20260508135725 30 153 1.6 4.8 0.00 2.03 0.00 74 1010.0
20260508135404 30 158 0.0 3.2 0.00 2.03 0.00 74 1010.0
20260508135104 30 153 0.0 3.2 0.00 2.06 0.00 74 1010.0
20260508134804 30 146 0.0 3.2 0.00 2.06 0.00 74 1010.0
20260508134504 30 140 0.0 3.2 0.00 2.06 0.00 74 1010.0
20260508134225 30 134 0.0 3.2 0.00 2.06 0.00 75 1010.0
20260508133904 30 137 1.6 3.2 0.00 2.06 0.00 74 1010.0
20260508133604 30 137 1.6 3.2 0.00 2.06 0.00 74 1010.0
20260508133325 30 141 0.0 3.2 0.00 2.06 0.00 74 1010.0
20260508133004 30 136 0.0 3.2 0.00 2.06 0.00 74 1010.0
20260508132704 30 121 0.0 3.2 0.00 2.06 0.00 74 1010.0
20260508132404 30 125 0.0 3.2 0.00 2.06 0.00 74 1010.0
20260508132104 30 123 0.0 3.2 0.00 2.06 0.00 74 1010.0
20260508131825 30 140 0.0 3.2 0.00 2.06 0.00 74 1010.0
20260508131504 30 130 0.0 3.2 0.00 2.06 0.00 74 1010.0
20260508131204 30 129 0.0 3.2 0.00 2.06 0.00 74 1010.0
20260508130904 30 124 0.0 3.2 0.00 2.06 0.00 74 1010.0
20260508130604 30 137 0.0 3.2 0.00 2.06 0.00 74 1010.0
20260508130304 30 152 0.0 3.2 0.00 2.06 0.00 74 1010.0
20260508130004 30 157 0.0 3.2 0.00 2.06 0.00 73 1010.0
20260508125704 30 161 0.0 4.8 0.00 2.06 0.00 74 1010.0
20260508125404 30 151 1.6 4.8 0.00 2.06 0.00 74 1010.0
20260508125104 30 146 1.6 4.8 0.00 2.06 0.00 73 1010.0
20260508124825 30 138 1.6 4.8 0.00 2.06 0.00 74 1010.0
20260508124525 30 133 1.6 4.8 0.00 2.06 0.00 73 1010.0
20260508124204 30 131 1.6 4.8 0.00 2.06 0.00 74 1010.0
20260508123904 30 128 1.6 3.2 0.00 2.06 0.00 74 1010.0
20260508123604 30 147 1.6 4.8 0.00 2.06 0.00 73 1010.0
20260508123304 30 160 1.6 4.8 0.00 2.06 0.00 74 1010.0
20260508123025 30 171 1.6 4.8 0.00 2.06 0.00 74 1010.0
20260508122725 30 172 1.6 6.4 0.00 2.06 0.00 74 1010.0
20260508122425 30 169 1.6 6.4 0.00 2.06 0.00 74 1010.0
20260508122104 30 160 1.6 6.4 0.00 2.06 0.00 74 1010.0
20260508121804 30 157 1.6 6.4 0.00 2.06 0.00 73 1010.0
20260508121525 30 145 1.6 6.4 0.00 2.06 0.00 73 1010.0
20260508121225 30 142 1.6 6.4 0.00 2.06 0.00 73 1010.0
20260508120904 30 150 3.2 8.0 0.00 2.06 0.00 73 1010.0
20260508120604 30 150 3.2 9.7 0.00 2.06 0.00 73 1010.0
20260508120304 30 156 3.2 9.7 0.00 2.06 0.00 73 1010.0
20260508120004 30 162 3.2 9.7 0.00 2.06 0.00 73 1010.0
20260508115704 30 154 4.8 9.7 0.00 2.06 0.00 73 1010.0
20260508115425 30 163 3.2 9.7 0.00 2.06 0.00 74 1010.0
20260508115104 30 161 1.6 6.4 0.00 2.06 0.00 73 1010.0
20260508114804 30 160 1.6 6.4 0.00 2.06 0.00 74 1010.0
20260508114504 30 173 1.6 6.4 0.00 2.06 0.00 74 1010.0
20260508114204 30 169 1.6 4.8 0.00 2.06 0.00 73 1010.0
20260508113904 30 199 1.6 4.8 0.00 2.06 0.00 74 1010.0
20260508113604 30 260 0.0 3.2 0.00 2.06 0.00 74 1010.0
20260508113304 30 274 0.0 4.8 0.00 2.06 0.00 73 1010.0
20260508113005 30 191 1.6 4.8 0.00 2.06 0.00 73 1010.0
20260508112704 31 182 1.6 4.8 0.00 2.06 0.00 73 1010.0
20260508112404 30 171 1.6 4.8 0.00 2.06 0.00 73 1010.0
20260508112104 30 181 1.6 4.8 0.00 2.06 0.00 74 1010.0
20260508111804 30 170 1.6 4.8 0.00 2.06 0.00 74 1010.0
20260508111504 30 159 1.6 6.4 0.00 2.06 0.00 73 1010.0
20260508111204 30 148 1.6 6.4 0.00 2.06 0.00 73 1010.0
20260508110904 30 136 1.6 6.4 0.00 2.06 0.00 74 1010.0
20260508110604 30 134 1.6 6.4 0.00 2.06 0.00 73 1010.0
20260508110304 31 138 1.6 6.4 0.00 2.06 0.00 73 1010.0
20260508110004 30 153 3.2 6.4 0.00 2.06 0.00 73 1010.0
20260508105704 31 166 3.2 4.8 0.00 2.06 0.00 73 1010.0
20260508105405 30 168 1.6 4.8 0.00 2.06 0.00 73 1010.0
20260508105104 30 167 1.6 4.8 0.00 2.06 0.00 73 1010.0
20260508104804 31 161 1.6 4.8 0.00 2.06 0.00 72 1010.0
20260508104504 31 163 1.6 4.8 0.00 2.06 0.00 73 1010.0
20260508104204 31 153 1.6 4.8 0.00 2.06 0.00 73 1010.0
20260508103904 31 150 0.0 3.2 0.00 2.06 0.00 73 1010.0
20260508103604 31 143 0.0 3.2 0.00 2.06 0.00 72 1010.0
20260508103304 31 148 0.0 3.2 0.00 2.06 0.00 72 1010.0
20260508103004 31 146 0.0 3.2 0.00 2.06 0.00 72 1010.0
20260508102704 31 133 0.0 3.2 0.00 2.06 0.00 71 1010.0
20260508102404 31 97 0.0 3.2 0.00 2.06 0.00 71 1010.0
20260508102125 31 98 0.0 3.2 0.00 2.06 0.00 71 1010.0
20260508101804 31 81 0.0 3.2 0.00 2.06 0.00 71 1010.0
20260508101504 31 133 0.0 3.2 0.00 2.06 0.00 71 1010.0
20260508101205 31 142 1.6 4.8 0.00 2.06 0.00 71 1010.0
20260508100904 31 152 1.6 4.8 0.00 2.06 0.00 72 1010.0
20260508100604 31 158 1.6 4.8 0.00 2.06 0.00 72 1010.0
20260508100304 31 159 1.6 4.8 0.00 2.06 0.00 72 1010.0
20260508100025 31 168 1.6 4.8 0.00 2.06 0.00 72 1010.0
20260508095725 31 161 1.6 4.8 0.00 2.06 0.00 71 1010.0
20260508095404 31 154 1.6 4.8 0.00 2.06 0.00 71 1010.0
20260508095104 31 153 1.6 4.8 0.00 2.06 0.00 71 1010.0
20260508094804 31 146 1.6 4.8 0.00 2.06 0.00 72 1010.0
20260508094504 31 164 1.6 4.8 0.00 2.06 0.00 72 1010.0
20260508094204 31 187 1.6 4.8 0.00 2.06 0.00 72 1010.0
20260508093904 31 190 1.6 4.8 0.00 2.06 0.00 72 1010.0
20260508093604 31 162 1.6 8.0 0.00 2.06 0.00 71 1010.0
20260508093304 31 159 3.2 8.0 0.00 2.06 0.00 72 1010.0
20260508093004 31 159 3.2 14.5 0.00 2.06 0.00 71 1010.0
20260508092704 31 167 4.8 14.5 0.00 2.06 0.00 72 1010.0
20260508092404 31 163 4.8 14.5 0.00 2.06 0.00 71 1010.0
20260508092104 32 165 4.8 14.5 0.00 2.06 0.00 71 1010.0
20260508091804 32 155 3.2 14.5 0.00 2.06 0.00 73 1010.0
20260508091504 32 178 1.6 3.2 0.00 2.06 0.00 73 1010.0
20260508091225 32 161 1.6 3.2 0.00 2.06 0.00 72 1010.0
20260508090904 32 155 1.6 3.2 0.00 2.06 0.00 72 1010.0
20260508090604 33 144 1.6 4.8 0.00 2.06 0.00 72 1010.0
20260508090306 32 145 1.6 4.8 0.00 2.06 0.00 72 1010.0
20260508090004 33 146 1.6 4.8 0.00 2.06 0.00 72 1010.0
20260508085704 33 100 1.6 4.8 0.00 2.06 0.00 72 1010.0
20260508085404 33 112 1.6 4.8 0.00 2.06 0.00 72 1010.0
20260508085104 33 132 1.6 4.8 0.00 2.06 0.00 72 1010.0
20260508084804 33 157 1.6 3.2 0.00 2.06 0.00 72 1010.0
20260508084504 33 153 1.6 4.8 0.00 2.06 0.00 72 1010.0
20260508084204 33 148 1.6 4.8 0.00 2.06 0.00 71 1010.0
20260508083904 33 115 1.6 6.4 0.00 2.06 0.00 71 1010.0
20260508083604 33 99 1.6 6.4 0.00 2.06 0.00 71 1010.0
20260508083304 33 84 1.6 6.4 0.00 2.06 0.00 71 1010.0
20260508083004 33 87 1.6 6.4 0.00 2.06 0.00 71 1010.0
20260508082704 33 114 1.6 4.8 0.00 2.06 0.00 71 1010.0
20260508082425 33 179 1.6 4.8 0.00 2.06 0.00 70 1010.0
20260508082104 33 174 1.6 4.8 0.00 2.06 0.00 71 1010.0
20260508081804 33 159 1.6 8.0 0.00 2.06 0.00 71 1010.0
20260508081504 33 165 1.6 8.0 0.00 2.06 0.00 71 1010.0
20260508081204 33 178 1.6 8.0 0.00 2.06 0.00 71 1010.0
20260508080904 33 172 1.6 8.0 0.00 2.06 0.00 71 1010.0
20260508080604 33 181 1.6 6.4 0.00 2.06 0.00 71 1010.0
20260508080304 33 163 1.6 6.4 0.00 2.06 0.00 71 1010.0